Location: Budapest
(47.4979°N, 19.0402°E)
Time: 09:52:32
(UTC+02:00)

N. Korean satellite - Pass Details

Date: 09 October 2017
Orbit: 459 x 517 km, 97.2° (Epoch: 16 October)

Event Time Altitude Azimuth Distance (km) Brightness Sun altitude
Rises 19:29:55 0° 197° (SSW) 2,567 10.4 -14.7°
Reaches altitude 10° 19:32:19 10° 212° (SSW) 1,680 9.6 -15.1°
Maximum altitude 19:35:13 22° 266° (W) 1,096 9.3 -15.6°
Drops below altitude 10° 19:38:05 10° 319° (NW) 1,665 10.0 -16.1°
Sets 19:40:28 0° 335° (NNW) 2,539 10.7 -16.5°
